Regional Weather Roundup
Issued by NWS Charleston, SC

Home | Current Version | Previous Version | Text Only | Print | Product List | Glossary On
Versions: 1 2 3 4 5 6 7 8 9 10 11 12 13 14 15 16 17 18 19 20 21 22 23 24 25 26 27 28 29 30 31 32 33 34 35 36 37 38 39 40 41 42 43 44 45 46 47 48 49 50
000
ASUS42 KCHS 130125
RWRCHS

REGIONAL WEATHER ROUNDUP
NATIONAL WEATHER SERVICE CHARLESTON SC
900 PM EDT SAT JUL 12 2014

NOTE: "FAIR" INDICATES FEW OR NO CLOUDS BELOW 12,000 FEET WITH NO
SIGNIFICANT WEATHER AND/OR OBSTRUCTIONS TO VISIBILITY.

NOT ALL STATIONS ARE QUALITY CONTROLLED BY THE NATIONAL
WEATHER SERVICE. USE DATA WITH CAUTION...ESPECIALLY
DEWPOINT OBSERVATIONS.

SCZ027-030-031-034>040-042>050-130200-
...SOUTH CAROLINA...

CITY           SKY/WX    TMP DP  RH WIND       PRES   REMARKS
N CHARLESTON   PTCLDY    80  73  79 S7        30.15S
WATERFRONT PRK   N/A     81 N/A N/A S10         N/A
FORT JOHNSON   NOT AVBL
MOUNT PLEASANT FAIR      79  73  83 CALM      30.15S
JOHNS ISLAND   CLEAR     79  70  73 S8        30.15F
PINOPOLIS        N/A     84  72  65 SE3       30.07F
MONCKS CORNER    N/A     79  75  89 S5        30.16R
SUMMERVILLE    MOCLDY    79  73  83 S5        30.16R
BEAUFORT MCAS  CLEAR     81  73  76 SW3       30.15S
BEAUFORT ARPT  FAIR      79  73  83 CALM      30.14F
HILTON HEAD IS CLEAR     75  73  94 CALM      30.17S
GEORGETOWN     NOT AVBL
WALTERBORO       N/A     79  77  94 CALM      30.16R
ORANGEBURG     CLEAR     81  71  71 S3        30.14S
BARNWELL       FAIR      81  72  74 S3        30.15R
AIKEN          FAIR      79  72  78 S5        30.17S
MANNING        FAIR      79  79 100 CALM      30.15R
KINGSTREE      NOT AVBL
COLUMBIA       PTCLDY    85  70  60 SE6       30.12S
SUMTER         NOT AVBL
FLORENCE       CLEAR     82  72  71 S3        30.14R
MYRTLE BEACH   PTCLDY    79  72  78 S7        30.16R
N MYRTLE BEACH PTCLDY    80  72  76 S7        30.16R

$$

GAZ063-065-086>088-099>101-113>116-118-119-134-136>141-150-130200-
...GEORGIA...

CITY           SKY/WX    TMP DP  RH WIND       PRES   REMARKS
SAVANNAH ARPT  PTCLDY    80  70  71 S9        30.15S
HUNTER AAF     NOT AVBL
FORT STEWART   NOT AVBL
STATESBORO     NOT AVBL
SYLVANIA       CLEAR     79  74  84 CALM      30.15S
CLAXTON        FAIR      79  73  83 CALM      30.14F
THOMSON        CLEAR     83  75  78 SE5       30.17F HX  90
AUGUSTA-BUSH   PTCLDY    76  70  82 SE6       30.12S
AUGUSTA-DANIEL CLEAR     81  70  69 SE3       30.14S
SWAINSBORO     FAIR      81  75  83 S6        30.15R
VIDALIA          N/A     79  72  78 S3        30.15R
ALMA           CLOUDY    76  71  85 S7        30.15S
WAYCROSS       CLOUDY    78  76  94 CALM      30.15S
JESUP          NOT AVBL
BRUNSWICK      CLOUDY    77  72  83 CALM      30.16S
SAINT SIMONS   CLOUDY    78  71  79 SE3       30.15S

$$

SCZ027-028-034-036>038-045-046-048>050-GAZ119-141-130200-
...LAKE AND SUPPLEMENTAL COASTAL OBSERVATIONS...

STATION/POSITION TIME  TEMP    WIND        PRES    WAVE   SWELL
                       AIR SEA DIR/SP/G            HT/PER HT/PER/DIR
                 (UTC) (F)     (DEG/KT/KT) (MB)    (FT/S) (FT/S/D)
UPR LAKE MARION  NOT AVBL
WINYAH BAY       0100   80     160/ 10     1021.0S
LAKE MURRAY      0000   86     140/  9/ 13 1019.3R
ACE BASIN NERRS  0100   79     160/  1     1021.0S
FORT PULASKI     0100   78 78  130/  4/  4   N/A
SAPELO ISLAND    0100   78      80/  3     1021.0S

$$

ANZ835-935-AMZ111-154-330-350-352-354-374-450-454-472-130200-
...C-MAN AND BUOY OBSERVATIONS...

STATION/POSITION TIME  TEMP    WIND        PRES    WAVE   SWELL
                       AIR SEA DIR/SP/G            HT/PER HT/PER/DIR
                 (UTC) (F)     (DEG/KT/KT) (MB)    (FT/S) (FT/S/D)
FOLLY BEACH CMAN 0100   79     160/ 11/ 12 1021.4F
BUOY 41004       0100   80 82  130/  6/  8 1020.8F   2/ 8   2/ 8
BUOY 41008       0100   79 84  160/ 10/ 12 1020.7R   2/ 8   2/ 90/ 8
5E ST. MARYS GA  0100      83                N/A     2/ 8
FRYING PAN BUOY  NOT AVBL
BUOY 41025       0100          VRB  6/  8  1021.1F   2/ 6   2/140/ 6
CAPE LOOKOUT NC  0100   79     140/  7/  8 1021.2F
BUOY 41002       0006   81 84  140/  4/  6 1022.3    2/ 7   2/140/ 7
BUOY 41010       0100   81 83   10/  6/  8 1021.2R   3/ 7   2/120/ 7
BUOY 41012       NOT AVBL
ST AUGUSTINE FL  0100   79      60/ 11/ 11 1021.1F
CAPERS NEARSHORE 0000   79     170/ 10/ 12   N/A
FRIPP NEARSHORE  0000   81     170/  8/ 10   N/A


$$



USA.gov is the U.S. government's official web portal to all federal, state and local government web resources and services.